Login

Stavanger

Pos Pair Lane Name Born Nation Time
1 8 I Sander Eitrem 2002 Norway 1:46.43
2 7 I Ryota Kojima 1998 Japan 1:48.16
3 11 O Antoine GĂ©linas-Beaulieu 1992 Canada 1:48.52
4 10 I Alessio Trentini 1994 Italy 1:48.98
5 6 O Jordy Van Workum 2000 Netherlands 1:48.99
6 11 I Moritz Klein 2000 Germany 1:49.19
7 13 O Dmitriy Morozov 1996 Kazakhstan 1:49.57
8 7 O Demyan Gavrilov 1997 Kazakhstan 1:49.81
9 13 I Casey Dawson 2000 USA 1:49.84
10 8 O Gabriel Odor 2000 Austria 1:49.87
11 5 O Francesco Betti 2000 Italy 1:49.88
12 9 I Marcin Bachanek 1996 Poland 1:49.99
13 2 O Hojun Yang 2005 South Korea 1:50.03
14 4 O Samuli Suomalainen 1998 Finland 1:50.04
15 12 I Haotian Wang 1998 China 1:50.17
16 9 O Hanyang Shen 1998 China 1:50.69
17 10 O Ethan Cepuran 2000 USA 1:50.74
18 2 I Livio Wenger 1993 Switzerland 1:50.75
19 3 O Mathieu Belloir 2000 France 1:51.66
20 3 I Cheon-Ho Um 1992 South Korea 1:51.73
21 6 I Wei-Lin Tai 1997 Taiwan 1:51.75
22 5 I Michael Roth 1999 Germany 1:52.13
23 12 O Ziwen Lian 1998 China 1:52.56
24 1 I Botond Bejczi 1999 Hungary 1:54.08
DSQ 4 I Szymon Palka 1997 Poland 1:49.36

Info

What World Cup B-group
Discipline 1.500
Host Stavanger
Nation Norway
Date Friday 11.Nov 2022
Calendar 2022/2023
Air Temp 14.0 C
Ice Temp -6.0 C
Humidity 45.0 %